GFSGL_250_rhum_105.txt.gz
RH
45 48 51 50 48 60 99 38 32 40 47 42 41 41 36 33 28 26 21 37 87 100 100 100 100 100 100 100 99 98 100 100 100 100 100 100 100 100 100 100 100 100 100
47 53 48 46 53 96 94 40 36 40 53 62 53 46 57 41 41 34 31 22 19 21 52 83 99 100 100 100 100 100 100 100 100 100 100 100 100 100 100 100 100 100 100
48 44 43 50 100 100 100 54 40 40 42 50 65 82 95 85 81 60 43 35 29 23 22 31 67 87 97 100 100 100 100 100 100 100 100 100 100 100 100 100 96 93 91
43 43 51 86 100 100 100 85 50 42 41 41 60 76 81 100 100 93 81 50 40 35 29 26 26 32 65 91 100 100 100 100 100 100 100 100 99 99 90 80 68 58 51
55 57 75 100 100 100 100 100 75 59 59 60 72 80 79 100 100 100 100 73 58 48 46 36 32 33 30 33 49 65 70 71 69 71 83 69 76 80 76 70 70 57 69
64 82 100 100 100 100 100 100 99 81 80 97 99 100 100 100 100 100 85 79 83 81 59 48 49 45 42 36 34 33 33 32 32 34 45 51 54 47 47 52 52 54 54
77 96 100 100 100 100 100 100 100 100 100 100 100 100 89 98 99 100 99 95 96 74 60 63 58 53 47 50 49 42 42 46 51 51 45 42 46 45 53 59 54 47 51
95 100 100 100 100 100 100 100 100 100 100 100 94 100 100 100 100 99 99 100 95 83 85 83 77 75 81 78 75 58 44 44 46 48 48 53 49 44 47 50 53 62 71
100 100 100 100 100 100 100 100 100 100 100 100 100 100 100 100 100 100 99 89 94 84 93 98 100 100 100 100 89 78 62 59 52 46 47 54 55 73 60 70 64 72 88
100 96 100 100 100 100 100 100 100 100 100 100 100 90 92 90 80 78 82 92 98 100 100 100 97 92 80 81 73 55 57 53 58 51 53 59 59 53 64 65 57 60 66
95 97 100 100 100 100 100 100 100 100 100 99 80 69 91 98 98 100 100 100 100 99 95 90 85 77 68 84 90 67 66 73 70 66 75 67 86 98 76 65 66 73 80
100 99 87 91 89 89 90 94 100 99 100 100 98 100 100 100 100 100 100 100 100 100 100 100 100 100 99 97 96 98 93 81 78 97 100 100 96 98 88 91 89 81 86
100 100 100 100 100 89 94 100 100 100 100 100 100 100 100 100 100 100 100 100 100 100 100 98 89 89 90 97 100 100 100 100 100 98 98 100 100 89 76 64 58 67 75
84 75 100 93 83 100 100 100 100 100 100 100 100 100 100 100 100 100 100 100 100 100 100 98 100 100 100 100 100 100 100 100 99 100 100 100 100 87 76 55 61 58 59
100 100 100 100 98 100 100 100 100 100 100 100 100 100 100 100 100 100 100 100 100 100 100 100 100 100 100 100 100 100 100 100 100 100 100 95 88 62 46 55 66 58 59
74 100 100 100 100 100 100 100 100 100 100 100 100 100 100 100 100 100 100 100 96 90 97 90 85 73 81 73 70 77 69 78 92 94 98 86 66 45 63 67 78 77 75
93 100 100 100 100 100 92 89 100 100 100 100 100 100 100 100 100 100 100 100 66 56 49 50 46 48 48 55 72 64 62 62 51 55 75 87 60 64 93 77 78 79 82
100 79 79 78 92 100 100 86 70 81 95 99 100 100 100 100 99 98 98 92 81 82 75 84 98 100 97 92 93 94 93 76 57 69 76 88 91 86 82 63 85 78 74
92 100 100 100 84 96 100 100 93 95 94 76 71 88 100 100 100 98 94 74 96 100 100 100 100 100 94 64 55 55 58 65 79 92 94 99 81 72 79 68 70 70 45
74 84 90 100 100 99 72 77 95 86 68 63 76 82 65 58 68 84 96 100 100 100 99 92 75 67 60 60 68 74 78 69 73 66 59 60 56 56 68 54 40 29 23
51 58 81 80 76 80 93 100 100 100 100 100 100 100 100 100 100 99 98 100 97 91 71 54 58 56 56 54 59 58 62 59 57 61 58 64 41 37 33 26 19 18 18
45 42 44 48 52 55 59 56 62 72 69 64 63 61 62 59 65 71 66 52 48 50 56 55 52 54 63 56 52 56 56 54 52 46 40 34 28 22 16 15 15 14 12
39 44 42 39 39 40 41 44 46 48 48 47 47 48 48 50 52 51 50 55 57 53 55 60 61 56 53 52 48 45 39 32 26 23 20 17 16 15 13 12 12 11 10
23 26 28 30 37 41 42 42 46 49 51 51 52 53 55 58 56 54 52 51 52 49 48 52 50 43 36 34 28 22 19 17 16 16 15 13 12 11 11 10 8 7 10
14 15 15 15 17 21 25 25 25 24 26 28 30 32 33 33 34 35 36 36 36 35 30 25 23 20 19 17 16 16 14 11 11 11 10 10 9 7 7 8 8 8 8
9 10 11 12 12 12 13 13 13 13 13 14 14 15 16 16 17 17 17 17 16 16 15 15 14 12 11 10 10 10 10 9 9 8 7 7 8 8 8 7 6 5 4

GFSGL_250_rhum_108.txt.gz
RH
87 67 69 58 66 66 78 57 64 67 76 50 33 32 28 29 29 28 26 30 95 100 100 100 100 100 95 73 55 64 84 94 100 100 100 100 100 96 100 100 100 100 100
71 62 51 79 85 83 67 61 67 61 100 48 32 37 34 40 40 40 33 26 24 28 86 100 99 100 100 100 100 100 100 100 100 100 100 100 100 100 87 100 100 100 100
60 58 58 63 69 59 73 63 54 65 100 46 33 42 44 43 45 53 49 55 41 29 21 22 23 35 65 94 99 100 100 100 100 100 100 100 100 100 100 100 100 100 100
55 51 49 51 59 62 83 71 61 97 98 45 36 42 56 61 68 91 96 89 74 60 32 28 27 26 26 25 26 46 98 100 100 100 100 100 100 100 100 100 100 99 93
51 49 51 54 60 66 80 99 100 100 96 48 41 41 49 49 51 80 100 100 95 90 90 45 36 42 38 32 32 32 32 33 44 74 94 92 84 69 51 43 48 54 54
56 53 50 54 72 77 100 100 100 100 98 59 47 49 51 58 61 84 92 100 100 100 100 98 66 54 53 46 40 36 40 40 39 43 42 44 46 51 50 53 56 55 59
72 68 56 72 79 100 100 100 100 100 100 100 84 68 67 76 95 100 100 100 97 96 99 76 68 78 71 66 67 59 53 48 52 53 60 48 41 39 40 34 34 33 36
91 90 91 94 100 100 100 100 100 100 100 100 100 100 100 100 100 100 99 82 91 99 99 97 100 100 100 95 82 77 76 63 68 65 53 65 65 59 56 58 53 57 56
100 100 100 100 100 100 100 100 100 100 100 100 100 100 100 100 100 96 91 90 97 98 98 94 100 100 99 79 92 98 98 90 76 68 60 61 60 50 57 70 77 73 66
100 100 100 100 100 100 100 100 100 92 99 100 100 100 100 100 100 100 84 100 100 100 100 100 100 98 98 100 92 94 92 84 86 80 80 77 67 70 66 65 58 56 60
100 99 100 98 100 100 100 100 100 100 100 100 100 100 100 100 100 100 100 87 52 49 58 75 70 75 89 100 98 100 100 89 70 71 59 60 61 76 87 98 100 100 100
100 100 94 95 100 100 100 94 100 100 100 100 100 100 100 100 100 92 71 63 79 99 100 100 100 100 100 100 98 100 90 75 92 85 77 90 96 98 100 100 100 100 100
100 100 97 99 100 95 100 100 100 100 100 100 100 100 100 100 100 100 97 95 100 100 100 100 100 100 100 100 100 100 100 100 100 100 100 100 100 100 100 100 100 100 100
82 100 94 84 99 100 100 100 100 100 100 100 100 100 100 100 100 100 100 100 100 100 100 100 96 98 100 100 100 100 100 100 100 100 100 100 100 100 100 100 100 100 94
100 100 100 98 82 100 100 100 100 100 99 100 100 100 100 100 100 100 100 100 100 100 100 100 100 95 97 100 100 96 94 99 100 100 100 99 100 92 86 60 55 60 56
100 100 97 84 58 100 100 100 100 100 87 100 100 100 100 100 100 100 100 100 100 100 100 100 100 99 90 97 100 100 100 100 98 82 61 60 51 42 46 50 47 72 100
100 100 100 100 100 73 74 100 100 100 100 100 100 89 99 100 100 100 100 100 100 100 100 100 100 100 100 100 99 100 92 79 84 86 82 74 84 75 80 87 99 96 87
100 100 99 100 100 100 100 94 93 82 100 100 100 93 91 100 100 100 100 100 100 100 100 98 100 100 100 90 78 79 100 100 99 100 89 89 86 87 89 85 98 85 62
75 91 79 80 77 99 100 100 100 100 100 100 100 98 67 71 82 100 100 100 100 100 100 100 100 100 100 100 100 91 94 100 100 89 83 86 72 85 98 100 82 60 56
69 70 68 78 84 97 88 100 100 100 100 100 100 100 100 100 100 98 100 99 79 84 98 99 93 88 97 97 90 94 87 85 62 59 62 87 100 98 80 64 50 48 50
65 66 66 60 61 56 70 68 73 82 100 99 87 86 99 100 100 88 76 93 91 100 87 58 56 68 65 59 48 46 55 61 95 100 95 77 56 62 65 48 48 44 40
36 40 53 57 55 65 55 53 59 66 68 77 76 63 56 62 72 66 62 68 76 93 98 91 90 88 58 65 78 87 88 88 72 66 52 60 60 45 38 36 32 22 19
19 21 26 26 42 58 52 48 52 49 50 56 62 59 60 61 56 65 77 77 71 66 63 65 64 65 85 100 92 78 70 66 60 56 46 42 41 33 23 19 17 12 11
12 13 13 13 16 19 19 21 22 27 34 38 42 43 44 45 48 56 56 59 59 60 63 64 64 64 65 59 57 66 59 44 41 43 35 20 17 17 12 11 10 10 9
9 10 11 10 10 11 11 12 12 13 14 18 22 24 26 30 32 36 41 46 48 49 48 52 52 46 37 31 33 33 28 21 16 16 15 12 9 10 9 8 8 8 7
4 4 5 6 6 7 7 7 8 8 8 9 9 10 10 11 12 12 12 13 14 15 15 15 16 15 14 13 13 13 12 10 9 9 8 8 8 7 7 7 6 6 6

GFSGL_250_rhum_111.txt.gz
RH
99 73 86 80 80 66 73 100 100 100 81 73 92 61 60 40 31 27 26 26 28 83 100 100 96 100 100 100 96 90 100 100 100 100 100 100 100 85 77 69 99 100 100
97 74 80 72 64 67 86 100 100 100 78 94 83 64 68 37 32 35 30 27 27 33 96 100 100 100 100 90 86 66 66 70 88 93 97 85 76 79 100 100 100 100 100
90 81 80 73 64 62 85 100 100 100 79 94 76 64 75 39 33 39 40 39 31 31 33 29 61 92 97 99 98 100 100 100 100 100 100 100 100 100 100 100 98 97 100
90 92 76 71 63 70 87 97 100 95 99 97 74 60 83 40 34 44 46 47 43 59 64 60 52 27 26 26 30 35 39 43 43 52 72 85 93 100 100 100 100 100 100
96 82 67 64 72 64 72 91 72 80 100 100 68 58 93 43 35 43 51 59 66 60 82 100 98 81 56 37 36 36 31 30 31 33 34 37 54 58 61 56 44 41 44
67 73 77 78 69 50 81 75 97 83 99 91 70 68 100 54 37 40 54 66 68 62 78 99 98 100 100 82 61 45 44 50 54 55 56 55 48 48 44 47 58 56 51
65 57 62 70 62 76 91 96 87 94 96 87 89 100 100 73 42 42 46 54 58 58 88 100 100 100 100 90 53 50 52 63 66 76 80 79 74 63 65 58 57 66 62
90 98 86 74 58 77 97 100 100 100 100 93 100 100 100 96 58 49 52 60 65 74 81 99 95 92 94 89 84 75 69 62 70 84 85 77 73 68 70 71 75 71 68
93 100 94 82 70 99 100 100 100 86 100 100 100 100 100 100 92 73 77 88 88 93 90 98 100 100 100 87 78 82 95 86 83 82 93 87 88 78 87 88 86 76 72
100 100 100 91 96 100 100 100 100 100 98 100 100 100 100 100 100 100 100 100 100 99 83 85 73 70 70 89 100 100 100 99 100 100 99 81 79 85 100 97 92 66 51
100 100 100 100 96 100 100 100 100 100 98 80 93 99 100 100 100 100 100 97 86 79 78 82 76 69 61 60 67 60 68 86 87 74 48 54 57 60 62 60 51 61 59
100 100 100 100 100 100 100 100 100 100 100 100 95 79 80 95 100 100 100 100 100 99 100 84 65 78 78 73 89 100 100 100 100 83 55 48 47 48 50 54 74 95 100
100 100 95 100 100 100 100 100 100 100 100 100 95 100 99 94 98 99 99 100 100 100 100 95 86 100 100 100 100 100 94 76 74 82 95 67 85 92 100 100 100 100 100
100 100 100 80 100 100 100 100 100 100 100 100 100 100 100 100 100 100 100 100 100 99 100 100 91 82 93 98 100 93 100 100 98 97 100 100 84 100 100 95 97 78 98
87 81 100 87 100 94 100 96 100 100 100 100 100 100 100 100 100 100 100 100 100 100 100 100 100 100 100 99 100 100 100 100 100 95 100 100 100 100 100 100 100 96 82
100 68 100 100 89 99 99 98 98 100 100 100 100 100 100 100 100 100 100 100 100 100 100 100 100 100 100 100 99 100 100 100 100 100 100 98 98 100 100 100 100 100 94
100 100 79 86 100 100 99 83 100 100 98 100 100 100 100 100 100 100 100 100 100 100 100 100 100 100 100 100 100 100 100 100 100 100 100 100 98 85 100 100 91 89 100
100 100 100 80 66 100 100 83 76 100 100 100 100 100 100 100 100 100 100 100 100 100 100 99 100 96 100 100 100 100 100 100 100 91 86 90 100 99 92 100 100 100 100
81 94 100 100 79 77 74 100 76 69 73 83 100 99 95 92 89 99 100 99 100 100 100 100 100 100 90 100 100 100 100 100 97 100 100 100 100 100 100 100 100 94 88
63 80 91 100 94 89 88 60 74 75 93 95 90 79 83 91 99 96 100 98 96 100 93 100 100 100 100 100 100 100 100 100 100 84 91 100 100 100 98 84 83 76 71
24 55 63 67 91 94 72 74 76 60 72 88 98 79 69 81 70 86 91 98 100 78 60 100 100 97 100 100 92 74 77 75 78 83 72 77 88 100 96 61 90 97 100
14 16 27 70 68 74 87 83 80 70 62 64 70 85 82 49 39 41 59 64 70 93 100 94 90 96 96 98 93 89 100 100 100 100 93 72 75 90 86 66 68 69 83
14 14 12 13 20 46 59 64 74 77 69 73 73 80 88 76 72 68 69 58 50 51 67 78 81 78 89 86 88 93 96 98 100 100 90 74 71 69 67 83 80 67 64
10 11 12 12 12 12 12 16 43 45 66 68 66 66 68 73 69 69 71 63 65 64 80 88 91 88 76 84 82 74 78 84 79 75 70 50 62 61 57 58 55 32 31
5 5 6 7 7 8 9 10 10 12 26 41 34 35 44 49 50 57 66 66 68 68 79 82 64 58 66 74 80 76 62 51 52 41 30 34 35 27 21 20 21 18 13
4 4 4 4 4 4 5 6 6 7 8 9 10 10 10 11 11 12 18 32 40 44 44 42 42 42 46 54 50 33 22 17 16 16 16 15 14 13 12 10 9 8 7

GFSGL_250_rhum_114.txt.gz
RH
92 90 76 67 73 71 65 71 100 99 100 100 100 100 100 99 68 64 56 41 35 31 30 100 98 95 100 100 100 97 96 99 100 100 100 94 88 100 100 100 100 100 100
89 85 67 60 67 71 71 89 100 100 100 100 100 100 100 97 74 59 58 40 36 32 32 51 100 100 100 100 100 100 100 100 100 100 100 84 86 100 93 100 100 100 100
93 87 64 60 62 64 84 94 100 100 75 100 100 100 99 98 79 60 58 40 39 32 32 34 72 100 100 99 98 77 79 84 93 67 85 99 86 80 89 98 99 93 94
83 64 61 64 65 66 84 94 98 84 80 100 100 100 100 100 88 60 62 42 43 37 36 36 38 39 57 96 100 100 100 100 100 100 100 100 99 100 100 100 100 100 100
56 60 66 58 60 67 71 66 62 80 100 100 100 100 100 100 92 62 61 50 43 44 41 45 45 53 54 40 38 42 40 39 39 51 44 44 39 38 39 40 46 53 61
78 68 66 65 67 65 65 75 82 94 100 100 100 100 100 100 80 60 62 57 43 48 48 57 74 94 100 100 94 89 63 36 39 43 48 47 45 54 60 65 76 69 62
83 94 90 86 79 78 86 89 84 91 84 89 99 99 98 81 70 70 65 62 44 47 54 60 75 76 67 87 100 100 100 88 63 62 53 50 53 55 60 64 65 67 71
92 94 100 90 94 89 81 80 76 82 94 80 99 97 99 83 79 74 70 80 54 47 51 57 72 75 81 77 98 99 97 98 82 72 80 75 77 72 62 65 74 79 67
100 99 94 77 87 83 97 88 73 82 98 100 99 100 96 78 87 82 92 100 92 52 46 55 60 62 63 57 78 99 100 99 100 100 93 88 84 93 86 99 100 87 80
79 65 85 100 92 100 100 89 98 97 100 100 99 97 89 94 90 89 93 100 100 82 69 52 52 61 69 63 65 76 82 81 89 95 78 74 96 100 100 98 91 73 62
76 80 100 100 100 100 100 100 98 100 100 100 100 100 98 82 78 97 100 100 100 100 98 89 74 65 64 71 71 68 67 76 77 74 92 98 88 78 82 77 76 88 74
77 93 100 100 100 100 100 100 98 100 100 100 100 100 100 96 100 100 95 100 100 100 100 100 100 100 99 94 85 81 70 59 57 68 91 98 76 61 94 100 91 59 44
74 78 99 96 100 88 99 100 100 100 100 100 100 100 100 100 100 100 100 100 100 100 100 100 100 97 95 92 92 83 70 68 66 72 71 77 97 100 100 100 94 64 44
70 74 97 100 100 98 100 85 99 100 100 100 100 100 100 100 100 100 100 100 100 100 100 100 100 100 100 94 90 98 99 100 98 100 100 100 97 91 98 100 69 77 68
66 75 79 100 100 100 99 100 98 100 86 100 100 100 84 98 100 100 100 100 100 100 100 100 100 100 100 100 100 100 100 100 98 92 100 100 88 77 65 70 86 95 87
62 60 68 80 100 100 100 100 95 90 100 100 97 100 92 100 100 100 100 100 100 100 100 100 100 100 100 100 100 100 100 96 90 100 99 92 98 100 100 99 93 99 100
58 55 55 58 77 100 100 100 100 100 76 93 100 100 100 100 100 92 100 100 100 100 100 100 100 100 100 100 100 100 100 100 100 100 100 100 100 100 100 100 94 94 100
59 50 48 52 52 74 96 99 95 83 87 66 64 99 100 100 100 91 98 100 100 100 100 100 100 100 100 100 100 100 100 100 100 100 100 100 100 100 100 100 100 100 100
32 29 32 36 43 52 54 76 90 77 69 80 76 58 67 86 100 100 100 100 96 93 100 100 100 100 100 99 100 100 97 84 95 100 100 100 100 99 100 100 98 92 95
17 16 16 19 23 33 44 47 67 85 83 67 67 67 47 56 57 92 85 81 94 91 98 100 100 93 100 100 100 100 100 100 100 95 99 100 81 100 100 100 100 100 100
12 11 11 11 12 16 22 29 41 51 81 87 72 60 59 62 51 49 63 76 79 83 88 92 100 93 97 99 96 94 99 99 82 77 69 88 92 79 87 92 95 99 100
11 12 12 12 12 11 11 16 20 29 32 41 59 60 56 55 60 58 51 48 60 66 69 64 78 92 93 86 99 100 100 100 97 97 97 100 95 91 88 85 89 80 75
9 9 9 10 10 11 11 11 11 12 17 20 25 39 44 47 52 53 55 61 54 51 66 65 57 58 69 71 67 75 85 88 89 91 91 94 92 86 71 84 86 69 62
5 5 5 5 6 6 6 7 8 9 9 10 11 15 20 28 29 30 40 58 63 60 55 51 51 52 48 47 47 45 55 57 58 72 71 57 50 53 56 61 73 93 99
4 4 4 4 4 4 4 5 5 6 6 7 8 8 8 10 13 20 25 28 34 47 54 47 42 42 48 57 61 60 58 60 61 61 62 62 58 59 70 84 93 90 90
3 3 3 3 4 4 4 4 4 4 4 5 5 6 7 8 9 10 15 18 18 22 25 31 37 36 42 46 47 52 58 65 69 67 74 79 74 61 58 67 61 56 39

GFSGL_250_rhum_117.txt.gz
RH
100 100 100 100 96 81 73 65 68 73 74 94 100 94 100 100 100 90 82 72 82 65 60 60 35 25 74 100 100 100 100 100 100 100 99 91 100 100 91 83 80 88 96
100 100 100 100 100 100 100 79 80 75 74 96 100 100 100 100 100 82 76 78 96 78 57 61 34 27 45 100 100 83 94 100 100 100 100 100 86 79 94 100 100 100 100
100 100 100 100 97 100 100 100 96 74 70 88 100 100 98 100 100 76 72 79 90 82 59 60 36 32 35 96 100 100 100 100 100 100 100 100 100 100 100 100 97 96 100
94 100 100 100 95 97 91 82 79 83 78 100 99 92 98 100 98 88 57 70 79 66 73 58 38 39 38 76 100 100 100 100 100 100 100 98 79 86 94 79 70 88 100
81 87 89 94 87 78 69 75 69 87 100 100 100 98 99 100 100 100 83 72 81 77 81 59 43 38 42 45 75 100 100 100 100 100 100 100 90 81 87 97 100 96 69
100 92 79 80 68 71 68 67 60 59 74 99 79 96 100 100 100 100 97 86 74 84 82 68 50 38 45 46 47 49 60 100 100 100 100 100 100 100 100 94 57 52 56
77 84 76 78 65 60 57 62 61 59 59 49 50 86 100 100 100 100 100 100 100 100 96 71 55 44 52 52 61 90 96 75 63 61 60 52 48 51 54 54 48 45 47
80 75 81 87 88 93 82 64 63 65 61 60 100 95 100 93 100 100 100 100 100 100 95 63 58 53 52 62 70 97 100 100 100 100 100 99 82 59 69 63 70 72 72
78 82 80 81 86 98 100 96 80 72 66 86 100 96 94 100 90 100 100 94 84 74 67 76 72 64 49 54 76 99 100 97 82 85 95 90 81 70 72 89 91 91 87
99 94 100 100 100 97 90 82 80 68 62 60 68 100 100 100 100 100 100 94 84 87 94 100 94 79 71 49 59 77 90 82 74 65 71 93 92 88 95 96 92 97 84
98 100 100 100 87 91 75 71 82 76 100 100 100 100 100 100 100 67 65 70 79 79 96 91 78 97 100 78 56 68 76 74 70 67 71 76 82 85 96 96 93 90 96
75 100 100 100 99 76 82 94 96 100 91 100 100 100 100 100 100 100 100 92 96 100 100 97 100 100 100 100 95 73 72 71 63 64 75 75 74 77 79 87 91 79 86
86 100 100 100 100 94 84 100 100 100 98 100 100 100 92 100 100 100 100 98 93 100 100 100 100 100 100 100 100 100 99 96 86 82 92 94 93 90 93 84 80 80 87
92 100 100 100 100 100 98 83 98 99 77 87 74 83 92 100 100 100 100 100 100 100 100 100 100 100 100 100 100 100 100 100 96 88 93 99 100 100 100 91 79 74 85
92 99 79 90 89 84 74 76 84 96 97 89 74 100 100 100 100 100 100 100 100 100 97 100 100 100 100 100 100 100 100 95 87 87 100 100 100 99 98 100 99 98 100
82 77 76 68 64 64 75 82 74 87 100 96 69 85 99 100 99 97 100 100 100 100 100 100 100 100 100 100 100 100 100 100 100 100 100 85 94 88 95 100 100 100 92
78 79 76 73 70 66 66 63 67 71 90 100 99 70 74 100 100 99 99 80 100 100 95 94 100 100 100 100 100 100 100 100 100 100 100 100 100 100 100 99 100 83 71
68 68 69 72 68 59 54 54 56 62 68 80 100 97 80 84 80 98 99 99 86 92 100 100 76 75 96 98 99 100 100 100 100 100 100 96 97 100 100 100 94 100 100
46 50 52 55 58 59 56 52 50 50 53 56 69 89 88 72 79 86 85 85 97 89 86 97 100 91 75 70 80 100 92 91 98 100 99 100 100 100 100 100 100 100 100
18 19 21 25 28 30 30 31 32 30 34 40 47 52 66 79 67 56 70 78 74 78 77 79 72 81 71 76 87 83 91 99 84 99 100 100 100 100 76 93 100 100 97
12 12 12 13 14 14 14 14 14 14 14 16 20 30 39 43 56 71 58 48 54 62 65 73 67 57 54 69 78 94 86 79 71 72 76 94 90 93 90 96 82 96 100
9 9 10 10 10 10 10 11 11 11 10 10 11 14 18 24 30 37 46 52 49 42 43 53 60 65 68 65 73 75 66 59 62 69 67 68 69 59 76 81 83 96 87
5 5 5 5 5 5 6 6 7 7 8 8 8 8 9 11 16 19 21 27 30 32 43 47 49 51 52 50 61 69 69 71 78 71 71 72 70 60 67 81 94 94 92
4 4 4 4 4 4 4 4 4 5 5 6 6 7 8 8 8 8 9 12 15 18 18 19 26 33 39 46 49 50 50 51 54 55 54 62 63 64 62 62 60 60 65
3 3 3 3 3 3 3 3 3 4 4 4 4 4 5 6 7 8 8 8 8 8 8 8 12 13 17 25 29 35 44 52 54 53 49 51 54 55 55 56 57 60 63
2 2 2 2 2 2 2 2 2 2 3 3 3 3 3 4 4 4 5 6 7 7 8 8 8 8 9 9 11 12 15 22 27 29 33 36 40 50 59 63 66 67 66

GFSGL_250_rhum_123.txt.gz
RH
93 100 85 100 100 100 100 92 100 100 92 79 75 97 100 93 100 100 100 100 100 100 100 100 100 80 70 53 45 34 32 30 52 30 47 92 86 100 100 100 96 80 92
96 91 100 100 100 100 100 100 100 100 98 81 79 97 100 100 100 100 100 100 100 100 100 100 89 80 76 53 44 37 34 29 41 46 42 72 100 100 99 99 100 85 72
59 58 64 72 98 100 100 100 100 100 100 96 82 88 100 100 100 100 100 100 100 100 100 92 85 82 66 63 53 42 34 28 34 48 38 82 68 100 100 100 100 100 100
60 50 47 48 54 82 100 100 100 100 100 100 97 82 79 95 100 100 99 100 100 100 100 92 74 68 75 77 66 48 46 34 36 45 46 63 93 70 93 100 91 79 79
58 58 52 54 63 67 79 100 100 100 100 100 100 100 97 99 100 100 100 100 100 99 94 84 67 82 99 81 94 63 57 47 43 45 58 42 84 100 81 84 100 100 88
66 66 68 62 70 78 92 96 100 100 100 100 100 100 100 98 100 100 100 100 94 86 80 73 73 100 100 100 100 74 68 62 55 56 80 73 49 100 100 100 100 100 100
60 72 74 87 94 95 91 94 92 100 100 100 100 100 100 95 86 90 85 98 92 87 75 100 100 100 100 98 93 84 60 56 61 63 78 92 91 53 100 100 100 100 100
63 55 54 57 65 74 85 90 88 83 88 100 100 100 100 100 98 96 94 100 100 98 100 100 100 100 100 100 78 64 46 62 51 77 69 80 85 96 67 94 100 100 100
100 88 68 53 49 50 59 72 83 85 84 86 86 89 91 96 99 96 90 72 79 73 93 100 100 100 100 100 100 100 70 94 97 100 97 99 87 94 89 81 76 100 100
100 99 93 84 64 61 56 56 60 63 67 70 72 73 80 78 73 78 77 72 65 64 72 100 100 100 100 100 100 100 100 100 98 96 96 100 100 90 100 98 66 50 66
100 100 100 100 100 99 99 98 95 99 97 91 80 73 69 76 82 75 72 72 73 84 87 91 100 94 100 100 100 100 100 100 90 75 76 100 100 100 100 100 88 70 62
100 100 100 100 100 99 99 100 100 100 100 99 99 99 99 98 98 96 94 93 88 92 100 100 100 100 100 100 100 100 100 65 82 93 96 96 99 100 100 100 100 100 100
96 92 91 87 90 82 76 72 71 74 78 70 71 77 77 86 83 81 80 75 72 92 100 100 100 95 100 100 100 100 98 50 79 100 100 100 91 96 100 100 100 100 100
80 77 64 65 70 68 62 55 55 57 58 60 72 85 93 96 97 93 96 83 91 94 99 100 100 100 100 100 100 100 96 64 58 65 76 97 100 92 100 100 100 100 100
64 63 66 77 69 67 72 73 74 73 71 79 69 77 78 85 90 86 98 97 87 78 80 98 100 100 100 100 100 100 100 100 67 82 77 79 89 96 96 100 100 100 100
71 62 60 62 56 62 64 65 64 58 58 58 61 58 60 68 64 83 76 92 85 68 64 82 95 100 100 100 100 100 100 100 100 96 86 81 76 66 65 72 81 94 90
77 72 67 64 61 60 58 58 60 60 57 61 63 63 61 59 62 58 89 92 100 82 84 100 100 100 100 100 100 100 100 100 94 100 100 99 97 90 89 70 63 60 60
50 45 41 37 35 35 37 40 42 42 43 50 53 51 51 56 54 56 68 97 87 79 83 88 96 100 100 100 100 100 100 100 100 100 100 100 100 100 89 63 56 58 66
21 19 17 16 15 14 13 13 14 16 19 22 26 33 39 40 43 46 52 63 77 75 74 73 84 98 100 100 100 100 96 100 94 96 100 100 100 100 98 98 100 88 79
14 12 11 10 9 8 8 7 7 8 8 9 10 10 13 20 26 29 33 39 46 57 68 72 74 72 63 68 83 100 100 100 98 100 100 100 100 100 95 100 100 93 100
12 10 9 8 7 6 6 6 6 6 6 6 6 6 7 8 9 11 15 19 23 32 36 43 56 65 63 61 59 59 68 81 92 88 78 83 96 98 94 86 100 100 99
16 12 9 7 6 5 4 4 4 4 4 4 4 4 4 4 5 6 7 8 10 13 16 20 26 31 37 47 54 56 55 53 53 54 57 58 54 52 69 83 77 84 84
10 7 5 4 4 3 3 3 3 3 2 2 3 3 3 3 4 4 4 5 6 7 8 9 11 15 18 22 27 32 35 38 42 45 48 52 51 53 53 52 57 68 77
8 6 4 3 3 3 2 2 2 2 2 2 2 2 2 2 3 3 3 3 4 4 5 6 6 7 9 10 12 14 16 20 25 29 34 36 39 43 43 45 48 46 45
6 4 4 3 3 3 2 2 2 2 2 2 2 2 2 2 2 2 2 3 3 3 3 3 4 4 5 6 7 8 8 10 11 12 13 14 15 18 20 22 25 27 28
5 4 3 3 3 2 2 2 2 2 2 2 2 2 2 2 2 2 2 2 2 2 2 2 3 3 3 4 4 5 5 6 7 8 8 9 9 10 10 10 11 11 12

GFSGL_250_rhum_129.txt.gz
RH
14 18 21 26 52 98 60 96 91 98 99 97 100 80 98 57 29 60 84 83 100 100 100 100 100 97 96 100 100 100 100 89 81 99 88 66 57 48 41 38 38 32 33
12 22 28 26 33 54 64 71 56 56 68 81 45 78 42 30 28 55 87 100 100 100 100 100 100 100 100 100 100 97 84 77 97 87 91 82 65 56 52 44 43 41 36
12 16 24 32 37 43 36 26 30 31 32 29 34 38 35 26 29 51 100 97 100 100 100 100 100 100 100 100 100 100 100 100 100 97 100 91 76 61 53 43 38 35 41
15 17 20 28 22 18 19 26 30 33 37 39 29 29 32 36 33 54 95 99 100 100 100 100 100 100 100 100 100 100 100 100 100 100 100 93 67 59 58 44 38 42 50
62 90 100 93 79 54 50 57 38 43 44 42 40 45 58 96 64 67 94 99 100 100 100 100 100 100 100 100 100 100 100 100 100 100 100 75 67 69 53 42 48 43 57
100 100 100 100 100 98 100 100 100 100 100 100 100 100 100 96 100 100 100 100 96 100 100 100 100 100 100 100 100 100 100 100 100 100 93 71 75 96 69 76 49 38 40
100 100 100 100 100 100 100 98 100 100 100 100 100 100 100 100 78 86 79 86 60 73 95 96 100 100 100 100 100 100 100 100 100 86 75 87 100 100 85 98 73 59 49
100 100 100 100 100 100 100 100 95 96 100 97 98 100 100 96 78 68 75 69 62 60 69 76 93 100 100 100 100 100 100 100 100 97 100 100 100 98 92 68 80 70 61
100 100 100 100 100 97 92 96 90 100 100 100 87 94 81 75 85 70 54 55 50 49 64 69 89 97 100 100 100 100 100 100 96 82 100 100 100 94 100 99 100 100 89
100 100 93 100 97 91 93 91 95 89 90 94 79 68 64 76 75 82 69 61 56 62 60 85 94 89 97 100 100 100 100 100 100 100 95 96 100 100 100 100 100 100 100
100 95 93 88 95 87 84 86 96 100 98 94 92 97 94 89 76 74 90 89 78 69 63 73 94 95 94 100 100 100 94 90 100 100 100 100 100 100 100 100 100 100 100
100 100 99 100 99 99 100 87 80 82 87 91 85 78 70 63 61 58 58 57 56 56 56 58 62 85 97 99 100 100 100 100 100 100 100 100 100 100 100 100 100 100 100
97 100 100 100 98 99 93 99 92 84 93 94 100 92 88 83 74 70 63 59 57 58 68 70 65 65 70 80 90 96 98 99 95 97 92 84 79 78 86 91 100 100 92
100 100 98 97 80 80 93 77 73 72 63 67 88 100 100 100 100 100 95 88 74 65 59 60 62 64 62 61 64 68 73 76 79 83 78 74 83 100 96 100 100 100 87
84 84 84 71 77 84 76 75 82 84 79 74 62 56 58 66 76 93 91 95 100 99 88 86 75 65 62 63 61 58 58 62 72 75 81 84 95 100 100 100 100 100 100
100 100 98 98 98 94 90 83 80 66 67 65 62 64 59 53 61 68 61 64 66 76 89 89 90 89 89 90 80 74 86 89 88 96 100 100 100 100 100 100 100 100 100
73 71 67 68 72 67 67 62 64 62 50 51 48 43 40 39 38 39 43 49 52 49 60 68 71 80 96 93 87 86 94 87 85 94 96 92 89 91 100 100 100 100 100
47 47 47 48 48 47 46 43 42 42 36 32 28 27 25 23 20 19 20 25 27 29 28 32 35 43 50 65 72 74 73 76 76 80 81 76 80 89 96 100 100 100 100
24 23 22 20 19 18 16 15 14 13 13 12 11 10 8 8 7 7 7 7 7 9 13 19 21 22 22 24 28 34 44 55 49 50 50 59 69 85 94 96 100 100 100
22 21 21 23 24 24 21 20 19 17 16 14 12 10 7 6 5 4 4 4 4 4 4 4 5 7 10 14 18 22 24 26 30 36 39 47 55 70 79 91 88 97 100
32 34 37 37 32 28 24 20 17 14 12 9 7 6 5 4 4 3 3 3 3 3 3 3 4 4 4 4 5 7 11 17 20 26 31 36 43 53 79 86 82 90 97
42 40 39 36 31 26 22 17 14 10 6 4 4 4 4 3 3 2 2 2 2 2 2 2 2 3 3 3 4 4 4 5 7 12 17 24 31 37 46 57 62 70 89
54 53 48 39 31 26 21 17 11 6 4 4 4 3 2 2 2 2 2 2 2 2 2 2 2 2 2 2 3 3 4 4 4 5 7 10 15 23 29 36 43 50 55
61 49 42 35 30 25 21 13 8 5 4 3 2 2 2 2 2 2 2 2 2 2 2 2 2 2 2 2 2 2 3 3 4 4 5 5 7 9 14 20 26 31 38
55 50 46 40 32 25 16 10 6 4 3 3 2 2 2 2 2 1 1 1 1 1 1 1 2 2 2 2 2 2 2 2 2 3 4 4 5 6 7 8 12 17 24
55 49 42 34 25 17 11 6 4 3 3 2 2 2 2 2 2 2 1 1 1 1 1 1 1 1 1 2 2 2 2 2 2 2 2 3 4 4 5 5 6 8 10

GFSGL_250_rhum_132.txt.gz
RH
5 8 13 15 14 22 30 62 100 100 100 100 100 100 100 100 99 98 92 78 62 60 54 59 91 99 100 65 73 88 73 69 91 99 100 83 83 75 66 66 75 65 47
6 7 11 18 21 11 39 47 77 100 100 100 100 100 100 99 100 100 100 74 54 68 62 47 82 93 100 81 64 62 100 100 99 96 100 82 68 64 52 64 80 77 65
7 6 10 15 20 21 30 27 54 100 100 100 100 100 100 100 100 100 100 80 73 70 90 57 69 82 100 100 78 55 100 100 100 98 100 98 61 63 59 98 96 82 63
8 9 10 14 22 25 23 35 35 64 94 100 100 100 100 100 100 92 79 100 100 82 87 62 64 60 95 100 100 63 100 100 100 88 99 100 81 91 92 97 100 78 69
17 11 10 14 15 25 33 42 70 68 74 53 85 98 96 79 86 74 68 60 55 50 40 37 30 42 92 100 100 100 79 88 95 82 96 85 96 100 100 100 100 88 64
40 54 35 52 18 19 22 29 41 63 70 67 85 99 90 84 75 74 68 55 40 32 31 25 30 32 82 100 99 100 100 100 100 82 99 100 99 100 100 100 98 94 71
76 100 100 100 100 72 44 38 40 45 50 66 82 66 52 52 48 83 55 24 24 26 28 29 36 36 71 93 100 100 100 100 100 100 100 100 100 100 100 100 100 100 67
100 100 100 100 99 87 89 81 72 48 56 39 42 41 43 51 49 64 54 43 38 35 59 69 46 46 62 88 86 93 100 100 100 100 100 100 100 100 100 100 100 71 65
100 100 100 99 100 100 100 100 100 79 81 93 81 63 72 62 96 70 90 94 71 93 90 81 95 100 91 80 92 98 100 100 100 100 100 100 100 100 100 100 97 96 100
86 94 100 100 100 96 93 91 94 99 83 84 62 63 64 71 76 84 100 100 86 90 83 83 99 100 92 100 100 82 81 99 100 98 99 99 94 98 95 92 90 100 82
100 100 97 98 91 86 87 94 94 88 82 69 64 60 65 63 68 64 59 64 67 87 87 94 73 65 74 84 70 66 67 65 68 76 88 100 100 100 100 96 92 94 86
100 100 100 100 100 92 82 82 80 84 89 85 76 70 62 58 60 63 66 66 61 68 77 66 67 61 58 57 57 51 50 57 60 74 74 96 100 100 100 100 100 100 93
100 100 95 94 93 87 81 78 76 76 73 70 70 74 77 84 80 77 77 81 92 81 64 62 66 65 63 67 61 52 52 61 63 65 91 88 100 100 100 100 100 95 100
85 89 98 96 98 96 100 100 97 91 95 100 82 66 61 59 58 66 68 65 64 62 62 54 50 53 59 45 38 39 39 38 36 39 46 57 78 96 100 100 100 100 100
100 100 92 86 92 92 99 95 92 79 78 79 72 67 70 66 60 52 51 50 54 60 65 59 56 56 52 45 39 36 36 35 36 41 42 51 61 71 83 99 99 100 100
85 96 96 93 100 99 73 65 65 61 64 62 54 54 55 59 61 52 44 41 44 42 40 43 47 50 54 56 51 50 45 39 38 41 45 48 51 58 63 63 77 78 97
78 76 70 62 56 51 53 57 60 52 47 54 54 44 34 31 30 30 31 28 28 32 33 36 36 31 33 39 41 47 54 57 62 56 42 42 47 49 46 48 55 62 72
55 50 46 43 41 40 40 40 40 39 37 33 30 31 27 23 20 18 16 15 14 13 14 15 16 18 21 21 22 23 30 41 44 48 59 62 60 60 65 66 73 72 75
30 30 29 28 27 25 22 20 19 17 16 16 15 14 12 11 11 10 10 7 6 6 5 4 4 4 5 6 8 11 12 13 17 23 33 42 46 58 64 74 75 74 79
22 20 18 18 17 17 17 17 18 19 20 19 19 21 19 16 14 11 9 7 6 6 5 5 4 4 3 3 3 4 4 5 6 9 13 18 22 29 46 55 72 92 94
24 24 24 24 26 32 35 35 33 32 30 26 21 16 14 12 10 7 6 5 4 3 3 2 2 2 2 2 2 2 3 3 4 4 4 7 13 19 22 30 46 64 78
33 38 40 41 43 41 39 37 33 30 26 20 15 12 8 6 4 3 3 3 3 3 2 2 2 2 2 2 2 2 2 2 3 3 3 4 4 5 9 16 21 24 31
46 46 46 46 45 45 43 36 30 25 20 15 10 7 5 4 3 3 3 2 2 2 2 2 2 2 2 2 2 2 2 2 2 2 2 2 3 4 5 5 8 11 17
53 55 57 54 49 45 36 31 26 20 14 10 7 5 4 3 3 2 2 2 2 2 2 2 1 1 1 1 1 1 2 2 2 2 2 2 2 2 3 4 4 5 6
66 63 56 48 43 38 34 29 22 15 12 8 5 4 3 2 2 2 2 2 2 2 2 2 2 1 1 1 1 1 1 1 1 2 2 2 2 2 2 3 4 4 5
60 54 50 45 43 37 29 22 16 12 8 5 3 2 2 2 2 2 2 2 1 1 1 1 1 1 1 1 1 1 1 1 1 1 1 2 2 2 2 2 2 3 4

GFSGL_250_rhum_135.txt.gz
RH
4 3 3 4 5 8 12 18 41 91 100 100 100 100 99 100 100 100 100 98 95 94 100 100 89 100 85 88 74 64 87 100 84 100 81 61 99 100 99 74 84 75 71
4 4 3 6 10 10 14 31 63 93 100 97 100 100 100 100 100 100 100 100 100 98 79 72 100 64 100 96 87 92 85 97 100 100 84 100 100 82 68 95 90 88 71
16 25 7 6 8 11 15 33 53 89 100 100 100 100 100 97 100 100 100 100 100 100 100 96 69 55 72 60 48 85 100 100 100 100 100 100 100 100 100 99 100 100 68
29 46 38 11 11 12 14 18 26 93 100 100 100 100 100 100 100 100 100 100 100 97 100 100 75 81 91 83 63 43 50 90 100 100 97 100 100 100 100 100 100 78 65
14 11 18 22 11 14 16 23 38 84 100 100 100 99 100 100 100 100 100 100 100 94 100 100 100 100 95 78 75 52 52 60 79 75 94 100 75 92 95 76 82 99 78
28 14 10 16 14 17 20 26 28 61 87 100 100 97 100 100 100 92 99 100 100 100 100 100 100 100 100 91 88 88 52 56 73 63 94 100 89 67 92 86 94 98 69
74 72 46 30 22 17 21 32 31 27 41 69 96 99 100 100 100 100 100 99 99 97 100 99 98 88 77 60 51 72 72 74 77 53 59 100 100 86 81 100 100 100 97
97 84 100 100 94 50 35 34 37 35 28 46 46 51 55 77 89 95 99 89 92 94 88 89 83 69 49 52 37 43 50 41 38 32 30 44 100 100 97 69 73 68 73
100 100 100 100 100 78 65 52 31 32 42 43 49 46 61 62 52 52 51 50 68 76 65 52 39 42 41 31 41 30 26 26 24 22 22 28 58 100 100 100 82 76 66
100 100 100 100 99 100 90 100 68 61 59 58 58 59 59 66 54 52 60 56 49 37 27 24 22 47 44 34 37 30 20 21 28 26 32 37 48 92 100 100 100 100 100
79 91 97 92 90 78 88 96 78 61 56 57 54 48 42 42 37 32 40 37 34 28 26 36 50 70 56 73 90 96 100 82 39 54 79 74 84 89 100 100 100 100 100
100 98 75 76 78 77 75 68 67 76 82 74 62 58 48 51 56 47 49 55 62 61 54 55 63 66 66 81 75 100 100 100 100 100 100 100 100 100 100 100 100 100 100
100 100 100 100 99 73 67 61 58 60 57 57 58 60 50 38 34 37 43 47 47 40 32 35 46 65 63 52 69 72 100 100 100 100 100 100 100 100 100 100 100 100 96
100 100 95 97 100 100 100 100 100 100 99 90 72 55 49 49 51 52 53 54 48 41 38 38 38 38 36 34 41 42 48 53 63 71 73 79 86 89 88 83 74 81 78
99 99 100 100 100 100 100 99 89 88 85 76 77 68 65 62 56 52 50 50 51 50 50 48 48 48 46 44 41 36 35 34 40 47 50 52 52 53 52 52 49 54 62
91 81 80 86 89 89 86 79 73 65 62 66 55 50 55 66 63 52 42 37 35 32 33 33 30 28 28 32 33 32 31 36 39 40 38 36 39 38 36 34 33 40 39
78 76 71 69 66 62 57 51 48 42 39 36 37 36 36 36 38 38 36 34 34 31 28 26 26 24 22 22 22 22 24 24 23 23 23 25 26 24 27 28 30 30 27
49 51 54 55 56 52 44 41 39 38 35 32 30 30 29 24 21 20 18 16 14 11 10 9 9 8 8 9 10 11 10 10 10 12 12 14 15 16 19 21 21 21 24
36 35 37 35 30 27 26 24 23 20 17 16 16 15 13 12 11 11 10 9 8 7 6 5 5 5 5 4 4 4 4 4 4 5 5 6 8 12 14 14 16 20 20
38 31 25 24 22 21 19 17 15 14 14 15 15 16 15 13 11 10 8 8 7 7 6 5 5 4 4 4 4 3 3 3 3 3 3 3 3 3 4 6 8 12 18
31 28 29 28 22 18 16 17 21 25 25 26 25 23 22 20 17 13 11 9 7 6 5 4 4 3 3 2 2 2 2 2 2 2 2 2 2 3 3 4 4 4 6
30 31 27 22 22 24 32 37 39 38 35 32 26 21 17 14 11 9 7 7 5 4 3 3 2 2 2 2 2 2 2 2 2 2 1 2 2 2 2 3 3 3 4
36 28 26 33 42 48 51 46 41 35 29 24 20 17 13 11 8 7 6 4 3 2 2 2 2 2 2 1 1 1 1 1 1 1 1 1 2 2 2 2 2 2 3
31 41 52 55 54 50 45 42 36 31 27 22 18 14 11 9 7 5 4 3 2 2 2 2 2 1 1 1 1 1 1 1 1 1 1 1 1 1 2 2 2 2 2
50 57 59 57 54 48 44 39 36 31 26 21 16 12 10 7 5 3 2 2 2 2 2 1 1 1 1 1 1 1 1 1 1 1 1 1 1 1 1 2 2 2 2
61 58 53 51 50 47 43 39 33 28 24 18 14 11 7 4 3 2 2 2 2 2 1 1 1 1 1 1 1 1 1 1 1 1 1 1 1 1 1 1 2 2 2

GFSGL_250_rhum_141.txt.gz
RH
21 53 47 24 13 6 3 3 3 3 3 4 7 12 16 23 46 100 100 100 99 100 100 98 100 100 100 100 100 100 100 100 93 98 100 72 76 80 94 57 47 99 99
30 47 66 68 44 19 4 4 3 4 4 5 8 13 17 22 23 34 62 100 86 95 100 100 100 100 100 98 100 100 100 100 100 100 100 52 78 74 100 86 100 74 100
49 38 72 72 57 32 8 5 5 4 5 7 11 15 20 24 31 57 94 96 100 100 100 90 99 100 100 92 100 100 100 100 100 98 100 99 84 71 100 96 100 80 100
53 56 49 40 58 19 8 14 6 6 6 9 13 17 25 29 35 64 94 100 100 100 100 100 98 100 100 100 95 100 100 100 100 100 72 90 100 77 58 97 100 100 100
69 75 63 51 44 64 24 24 14 7 10 14 19 20 27 36 40 54 100 100 100 100 100 100 100 100 100 100 100 100 100 100 100 100 100 82 58 75 48 83 100 100 100
98 81 72 59 37 35 79 39 23 9 13 21 20 25 32 43 42 65 100 100 100 98 100 100 100 100 100 100 100 100 100 100 100 100 100 100 100 59 50 62 88 97 68
90 88 77 72 64 38 38 70 48 15 16 22 21 27 32 43 50 59 91 100 100 100 100 100 100 100 100 100 100 100 100 100 100 100 100 100 100 100 77 59 75 58 61
97 100 88 79 73 57 42 38 37 38 20 24 26 31 34 41 49 56 91 100 100 100 100 100 100 100 100 100 96 92 100 100 100 100 100 100 100 100 100 100 100 46 39
95 100 100 93 86 87 66 67 52 30 26 26 30 37 33 38 43 66 86 100 100 100 100 100 100 100 100 100 91 79 100 100 100 100 100 100 100 100 95 86 90 75 94
90 98 99 100 100 100 89 75 69 46 35 34 27 33 38 41 56 86 100 100 100 100 100 100 100 100 100 100 100 96 85 100 100 100 100 100 100 100 100 100 94 82 95
91 92 97 100 100 100 100 98 98 77 64 39 38 31 31 32 46 68 96 100 100 100 100 100 100 100 100 100 96 100 100 84 89 99 100 100 100 100 100 100 89 93 88
91 83 81 90 98 100 100 100 88 100 79 69 62 46 39 33 35 45 68 93 98 100 100 100 100 100 100 100 100 100 100 98 98 83 78 86 86 91 91 91 85 73 71
91 88 85 82 78 91 98 100 100 98 90 77 65 52 43 42 41 36 40 63 75 82 89 100 100 97 100 100 100 100 100 100 78 57 61 69 70 63 63 60 50 53 46
78 80 90 84 77 75 76 84 82 83 89 86 76 56 40 44 38 34 35 38 62 72 80 93 100 100 98 90 77 80 88 96 97 89 77 66 49 48 47 44 50 47 48
73 74 75 76 72 74 74 63 58 59 64 61 54 50 46 39 34 37 36 40 31 34 48 61 77 83 85 84 74 60 52 47 46 51 54 58 52 51 47 47 48 39 38
79 72 70 73 72 69 69 62 57 55 46 39 37 37 34 30 26 25 26 27 27 24 25 32 32 36 35 38 38 37 39 40 45 45 42 40 36 34 40 37 32 26 26
60 63 62 62 68 75 78 67 59 54 48 42 40 37 33 29 26 24 21 21 18 21 21 18 19 21 21 30 27 21 16 16 15 13 16 24 33 36 32 26 19 16 14
49 51 51 51 58 54 50 48 50 51 48 47 42 35 27 22 17 14 12 10 10 11 12 13 13 14 14 13 14 14 12 11 10 9 9 10 12 13 12 10 9 9 10
43 44 40 39 42 38 33 30 31 31 31 28 24 19 16 14 13 11 9 8 8 7 6 5 5 5 5 5 5 5 5 5 5 4 4 4 4 3 3 3 3 3 3
39 39 34 35 33 29 27 29 28 26 23 20 18 16 15 13 12 11 10 9 7 6 5 5 4 4 4 4 4 4 4 3 4 4 3 3 3 3 3 3 3 3 3
32 31 30 31 30 28 28 24 23 22 21 19 18 18 16 15 12 10 8 8 8 8 8 8 7 7 6 5 4 4 4 4 3 3 2 2 2 2 2 2 2 2 2
29 29 28 28 26 26 26 24 22 22 22 19 17 14 12 11 11 12 14 15 14 12 10 9 8 6 5 4 4 3 3 3 2 2 2 2 2 2 2 2 2 2 2
28 27 26 25 24 23 23 24 24 20 16 14 14 14 16 19 20 18 16 15 14 12 10 8 6 5 4 4 3 3 2 2 2 2 2 2 2 1 1 1 1 1 1
21 22 22 22 20 19 18 16 15 15 17 22 24 26 24 21 19 18 16 14 12 9 7 6 4 3 3 2 2 2 2 2 1 1 1 1 1 1 1 1 1 1 1
22 21 20 18 18 18 18 19 25 29 29 29 28 24 22 20 18 15 13 11 9 7 5 4 2 2 2 2 2 2 1 1 1 1 1 1 1 1 1 1 1 1 1
19 19 20 21 24 27 28 30 30 29 27 25 24 22 21 20 17 13 10 7 6 4 3 2 2 2 2 2 2 2 1 1 1 1 1 1 1 1 1 1 1 1 1

GFSGL_250_rhum_144.txt.gz
RH
19 19 40 43 34 26 30 20 13 5 4 4 4 3 4 7 10 15 32 75 100 88 100 94 100 100 100 100 100 100 100 100 100 100 100 99 100 95 82 67 65 43 50
22 29 42 40 45 34 28 31 18 8 4 4 4 4 5 6 11 15 49 100 100 100 100 100 97 100 100 100 100 100 100 100 100 100 100 100 100 100 84 97 100 55 37
40 48 57 49 47 32 41 28 28 20 6 5 4 4 5 7 13 17 58 100 100 100 100 100 99 100 100 100 100 100 100 99 100 94 100 100 100 100 100 95 93 93 75
58 57 64 49 51 36 40 42 38 18 8 6 9 10 8 8 15 19 48 100 100 100 100 100 100 100 100 100 100 100 100 100 100 98 99 100 100 100 100 100 100 99 100
59 60 78 67 61 40 32 41 42 20 12 39 37 50 46 11 15 22 31 100 100 100 100 100 100 100 100 100 100 100 100 100 91 100 81 100 100 98 100 100 93 100 100
66 82 80 74 76 67 54 46 66 64 26 46 100 87 100 83 40 24 29 89 100 100 100 100 100 100 100 100 100 100 100 100 100 100 86 93 100 100 100 100 100 100 100
83 87 84 80 83 74 71 40 49 85 68 26 85 100 97 83 49 30 36 35 40 84 100 100 100 100 100 100 100 100 100 100 100 100 100 84 99 100 100 100 100 94 100
75 89 95 88 94 83 75 81 47 54 97 74 70 90 100 57 32 37 40 40 40 44 81 100 100 100 100 100 100 100 100 100 100 100 100 100 80 87 100 100 100 100 98
87 79 90 100 100 99 90 86 81 63 73 78 90 82 79 64 48 33 43 45 49 51 64 100 100 100 100 100 100 100 100 100 100 100 100 99 100 83 100 100 100 100 100
89 87 90 100 100 100 100 93 85 94 91 82 80 59 30 38 42 34 38 47 52 53 59 62 69 92 100 100 100 100 100 100 100 95 90 92 100 95 96 100 98 100 100
88 98 92 99 100 99 100 100 95 100 95 81 74 67 34 22 26 28 33 44 52 56 58 59 56 67 84 100 100 100 100 100 100 100 96 82 83 84 100 100 86 96 92
74 94 98 99 93 91 92 99 97 88 93 98 98 76 72 42 28 29 33 40 50 59 63 64 64 55 70 93 100 100 100 98 100 100 100 95 89 94 77 79 88 89 83
65 70 92 96 100 94 88 91 99 88 79 79 76 86 71 69 48 36 33 40 46 52 54 56 61 57 63 78 94 99 100 100 94 96 99 82 88 96 89 84 79 76 67
62 72 69 79 84 90 95 95 98 95 97 89 83 68 58 64 60 56 38 35 36 37 41 44 46 46 51 56 69 92 98 92 95 91 98 99 91 75 70 83 84 66 70
52 65 71 77 81 84 77 77 80 80 79 76 78 75 68 60 48 46 49 44 45 33 32 35 38 38 42 44 50 56 68 82 93 96 96 96 96 98 89 69 67 63 53
45 51 61 66 69 69 71 64 63 66 62 58 54 57 56 51 49 46 40 36 37 30 31 32 30 30 32 36 45 61 66 68 78 87 94 95 91 90 87 73 61 54 50
31 40 48 57 61 53 48 49 56 50 42 49 57 57 51 43 40 39 38 36 34 31 26 27 25 25 25 26 28 34 47 58 61 74 76 78 78 70 69 63 45 38 40
29 33 35 36 41 48 55 58 53 45 38 41 40 37 34 32 33 34 30 26 25 25 24 22 19 20 19 19 19 18 20 25 30 42 47 48 44 45 45 42 41 42 38
26 28 29 30 32 32 31 31 30 29 28 25 25 28 27 25 22 19 16 14 10 9 10 10 11 12 12 11 12 12 13 13 17 22 26 27 25 24 24 25 28 26 23
24 25 26 26 26 27 26 25 23 22 21 21 19 18 17 15 14 13 12 11 10 10 9 8 8 7 7 6 6 6 7 7 7 8 8 9 14 13 11 11 13 16 16
28 28 26 26 26 25 24 23 23 22 20 19 17 16 16 14 14 14 11 9 8 8 8 7 7 6 6 6 5 5 5 4 4 4 4 4 3 3 3 3 3 3 3
29 32 31 29 26 24 23 23 22 20 18 18 17 15 14 13 11 10 9 8 7 7 6 6 6 5 5 5 5 5 4 4 3 3 3 2 2 2 2 2 2 2 2
21 20 19 17 16 17 17 17 15 14 13 12 12 11 10 10 9 9 9 10 10 10 9 8 8 7 6 6 5 5 5 4 3 2 2 2 2 2 2 2 2 1 1
19 17 16 15 15 15 15 14 14 14 13 12 12 11 11 12 13 14 14 13 11 10 10 9 8 7 6 5 4 4 4 3 3 2 2 2 2 2 1 1 1 1 1
16 16 17 16 14 13 13 13 13 12 13 13 14 15 14 13 12 11 11 12 12 11 10 9 8 6 5 4 4 2 2 2 2 2 2 2 1 1 1 1 1 1 1
12 12 12 12 13 14 14 14 13 12 12 12 12 11 11 11 11 11 12 11 10 8 7 6 5 4 3 2 2 2 2 2 2 2 2 1 1 1 1 1 1 1 1

GFSGL_250_rhum_150.txt.gz
RH
78 78 63 48 34 28 27 26 25 33 36 26 20 14 11 7 8 6 5 5 8 9 10 12 12 18 23 36 83 86 100 100 100 100 99 82 78 89 100 100 100 93 95
93 68 56 43 32 28 25 25 33 41 37 21 29 42 32 7 9 5 5 4 6 9 10 12 13 14 18 25 41 55 85 100 100 100 95 100 100 100 100 86 100 68 100
81 64 51 44 31 28 27 30 33 42 55 50 68 100 66 36 11 5 5 5 6 7 10 12 13 14 16 17 26 44 70 100 100 100 100 100 100 100 100 100 100 100 100
77 72 51 43 35 30 34 46 49 52 68 100 100 100 76 55 20 8 6 8 9 8 7 10 13 15 13 14 17 24 50 88 100 100 100 100 100 98 88 79 100 100 100
70 60 50 44 40 34 38 56 63 58 80 86 100 100 98 74 44 17 12 12 18 16 16 11 12 15 14 15 18 22 34 68 100 100 100 100 99 93 100 87 79 100 100
70 55 48 47 45 40 38 47 58 66 69 75 100 100 100 84 70 44 48 45 22 34 40 26 14 15 15 17 21 22 29 55 100 100 100 100 100 100 100 100 100 100 100
60 51 46 45 48 48 42 42 54 64 68 79 83 98 94 69 58 57 61 72 42 38 55 100 50 41 20 21 29 23 26 50 68 100 100 100 100 100 100 100 100 100 100
55 54 51 44 42 50 48 43 58 56 59 78 99 100 98 87 100 93 89 94 99 96 100 100 100 97 86 48 88 29 28 48 72 100 100 100 100 100 100 100 100 100 100
60 57 46 43 44 44 47 47 48 69 59 64 83 100 100 99 95 100 100 100 96 100 100 100 100 100 100 100 100 31 32 43 93 100 100 100 100 100 100 100 100 100 100
47 46 46 45 44 48 49 50 52 70 80 72 70 97 100 100 98 98 100 78 100 98 100 100 100 100 100 100 100 38 38 55 100 100 100 100 100 100 100 100 100 100 100
40 41 43 44 46 46 50 49 52 75 82 87 81 71 92 100 100 99 99 100 80 97 100 100 100 100 100 90 99 91 67 81 100 100 100 100 100 100 100 100 100 100 100
27 31 34 39 41 43 45 48 47 60 85 89 94 88 74 82 100 100 100 96 94 86 71 94 100 100 100 88 68 56 71 100 100 100 100 100 100 100 100 100 100 100 100
14 16 18 22 28 32 38 42 44 44 55 83 92 98 96 86 68 100 100 100 100 92 88 74 69 100 100 93 80 51 49 85 100 100 100 100 100 100 100 100 100 100 100
17 14 14 16 19 22 28 32 39 40 43 54 71 82 87 83 80 76 87 100 98 99 93 85 77 70 59 72 70 67 56 63 72 98 100 100 100 100 100 100 100 100 100
19 17 16 16 17 19 21 25 31 37 39 44 54 62 65 78 79 77 68 62 66 80 90 80 60 56 47 43 38 40 54 47 45 58 78 90 100 100 100 100 97 92 92
24 22 20 20 18 19 21 23 25 28 36 39 42 49 62 69 70 66 63 62 56 51 51 57 60 57 56 53 40 35 31 32 39 36 36 52 75 93 97 88 99 96 84
22 22 25 23 22 21 20 21 23 26 26 29 30 30 36 43 46 50 56 60 60 58 54 53 53 54 56 56 50 46 41 31 29 27 29 32 43 67 80 83 78 68 75
23 23 23 22 24 25 23 23 22 22 22 21 22 22 23 26 28 31 35 37 40 43 39 36 30 26 23 25 30 32 28 26 26 22 21 24 26 26 30 47 60 62 63
30 27 24 23 22 22 23 25 25 22 21 20 20 20 20 19 19 18 18 18 19 20 22 23 24 23 21 18 15 12 12 14 16 14 13 12 12 14 17 18 18 19 19
32 36 36 32 26 23 20 20 20 19 21 24 23 19 17 16 14 13 12 12 11 10 10 10 9 10 10 10 10 10 9 8 8 8 7 8 10 10 10 9 9 10 11
30 30 29 28 29 25 19 16 15 15 15 15 15 14 14 14 14 14 14 13 12 12 12 11 11 10 9 9 8 8 7 7 7 6 6 6 6 6 5 5 5 5 6
32 30 26 22 20 18 17 15 12 10 10 9 9 10 11 11 11 10 9 9 8 8 8 8 8 7 7 6 6 6 6 5 5 4 4 4 4 4 4 4 4 4 4
29 26 20 15 12 11 11 10 10 10 9 8 8 8 7 7 8 8 9 9 9 8 8 7 6 6 5 5 5 4 4 4 4 4 4 3 3 3 3 3 3 3 3
27 20 14 12 11 11 11 11 11 11 10 10 10 9 9 9 9 9 8 8 7 7 7 7 7 7 6 6 5 5 5 5 4 4 4 4 4 4 3 3 3 2 2
23 16 13 13 13 13 13 13 13 12 12 13 13 13 13 13 12 12 11 11 10 9 8 7 7 6 6 6 5 5 5 4 4 4 4 3 3 3 3 2 2 2 2
18 13 13 13 14 15 15 15 14 14 15 15 16 16 16 15 15 14 13 12 11 10 9 8 8 7 6 6 5 4 4 4 3 3 3 2 2 2 2 2 2 2 2

GFSGL_250_rhum_156.txt.gz
RH
45 44 44 44 41 45 45 52 51 55 67 69 45 34 28 25 24 24 24 25 21 16 17 17 17 16 14 11 10 9 9 12 15 23 30 38 69 100 100 96 89 99 100
28 25 27 33 41 43 47 67 84 90 75 59 41 34 30 31 35 29 29 30 24 26 38 32 15 10 11 10 9 10 9 10 14 30 32 36 46 100 100 100 100 100 90
30 31 35 45 73 88 94 100 100 88 67 56 43 38 34 38 42 41 46 52 48 52 40 32 19 12 8 8 10 11 10 11 14 22 23 30 42 88 100 100 99 99 96
65 80 91 97 100 100 100 100 92 71 58 56 45 39 37 39 51 54 56 69 69 53 44 31 15 8 8 8 9 12 12 12 14 17 21 25 38 80 100 100 99 86 100
98 100 100 100 100 100 100 88 76 63 52 48 44 41 38 41 57 60 51 62 86 91 59 44 26 10 8 9 8 12 16 15 14 15 18 25 38 54 100 100 100 100 100
100 100 100 100 100 99 89 74 69 56 53 48 44 42 40 37 40 56 59 75 94 93 94 63 50 19 13 16 16 16 16 18 18 18 19 21 37 46 74 100 100 100 100
95 89 74 71 66 56 58 53 49 47 48 46 42 40 41 41 39 50 63 84 100 90 98 83 73 57 40 41 41 36 28 22 21 19 17 19 31 38 47 97 100 100 100
65 61 55 53 50 48 47 46 44 44 44 44 46 43 40 42 40 46 60 78 100 100 96 95 90 84 76 73 74 75 62 49 33 25 20 20 25 32 36 56 99 100 100
58 49 48 48 44 41 40 40 39 38 38 39 40 41 41 40 44 39 53 60 87 100 100 100 100 99 99 100 88 86 83 72 49 36 27 22 20 25 30 39 66 100 100
50 49 49 42 33 26 23 22 23 24 27 33 36 39 38 37 39 41 43 57 77 99 100 100 100 99 100 100 100 100 91 83 73 55 32 23 21 22 24 32 42 100 100
56 47 43 30 23 18 15 14 14 15 15 18 23 30 35 38 39 39 39 48 58 87 97 100 100 100 98 100 100 100 100 100 100 80 65 38 26 20 22 26 32 56 90
60 56 45 31 23 19 16 17 18 20 21 20 18 20 26 34 38 41 41 38 50 61 99 99 100 100 96 100 100 100 100 100 100 99 74 71 57 31 24 22 24 27 31
63 60 56 48 31 24 20 19 19 21 20 21 21 17 18 22 32 38 42 44 42 48 61 97 97 98 100 100 100 100 100 100 100 100 100 100 76 54 56 37 31 23 24
66 69 65 58 50 38 26 21 21 21 22 22 20 21 20 19 20 26 35 37 36 46 67 64 85 85 95 92 93 100 100 100 100 100 100 100 100 100 70 63 50 36 35
71 72 72 68 60 49 38 31 26 23 23 21 21 23 22 21 22 20 22 30 37 36 38 54 67 77 78 82 95 98 100 96 94 100 100 100 100 100 97 90 75 72 58
78 78 81 77 74 64 45 35 32 29 27 25 24 22 20 22 22 20 21 21 24 33 37 34 37 48 63 62 58 54 76 84 88 87 78 95 95 100 83 90 97 83 75
80 80 84 85 78 73 63 47 31 30 30 27 28 27 23 22 19 19 19 18 16 17 20 25 27 30 36 45 62 62 52 47 51 70 64 72 65 66 64 73 69 50 47
85 86 84 84 81 73 64 51 39 36 33 28 24 24 22 20 19 17 14 13 14 14 12 12 14 16 18 22 28 35 39 41 37 34 45 59 65 64 58 54 55 55 56
87 85 87 88 84 76 68 60 47 36 33 28 28 27 20 13 10 10 10 10 10 10 10 12 12 12 11 10 10 11 15 20 23 23 22 22 24 27 33 36 38 38 40
93 85 86 89 83 71 61 52 43 34 27 23 21 17 13 11 11 9 8 8 7 7 8 8 8 9 10 11 12 12 12 11 10 11 13 16 19 22 21 18 16 14 13
87 78 85 86 79 66 52 44 32 26 24 19 16 12 10 9 10 11 11 10 10 9 9 8 8 7 7 7 7 8 8 8 8 8 7 7 6 6 6 7 8 9 9
75 84 77 74 68 59 45 34 29 24 19 15 11 10 9 10 10 11 12 12 12 12 11 10 9 8 8 8 7 6 6 6 6 6 6 6 6 6 6 5 5 5 5
67 72 74 66 51 43 35 29 23 20 15 11 10 9 10 11 11 12 12 11 11 11 11 10 10 10 9 9 8 8 8 7 6 6 5 5 4 5 5 5 5 4 4
57 61 56 50 44 36 29 23 20 16 11 10 10 11 12 12 13 13 13 14 15 16 16 16 14 13 12 10 9 8 7 7 6 5 5 4 4 4 4 4 4 4 4
49 49 43 38 33 26 23 19 15 11 10 12 12 12 13 14 14 14 16 18 18 18 17 16 14 12 10 9 8 7 6 6 5 5 4 4 4 4 3 3 3 3 3
37 34 31 26 25 23 18 14 11 11 13 14 14 15 16 18 18 18 17 15 13 12 11 9 9 8 8 7 7 6 6 5 4 4 4 3 3 3 2 2 2 2 2

GFSGL_250_rhum_159.txt.gz
RH
34 32 29 27 27 29 30 27 24 27 31 36 40 52 58 62 61 44 34 28 24 23 23 22 19 18 18 17 15 13 11 12 12 11 13 16 28 29 53 100 100 100 100
21 23 24 23 23 25 26 27 28 32 49 64 76 93 97 69 54 42 34 29 26 26 27 26 25 27 27 23 16 14 13 13 11 11 11 15 19 25 31 76 100 100 99
30 31 36 42 50 59 65 65 77 88 92 100 100 100 80 64 55 45 34 31 31 32 34 29 34 42 42 39 27 16 12 10 10 10 10 12 16 21 24 34 94 100 100
68 73 82 92 98 99 100 100 100 100 100 100 99 80 70 60 63 52 43 36 31 37 46 46 44 40 36 52 32 18 13 10 10 10 10 12 14 18 21 27 35 71 96
98 100 100 98 92 95 99 99 95 99 98 83 78 71 64 52 55 52 45 40 35 43 47 64 58 58 48 47 30 15 10 10 10 11 12 13 16 18 19 19 26 31 55
97 91 90 89 86 78 76 81 81 78 79 71 67 60 49 45 50 48 46 42 38 38 54 52 57 65 58 50 32 16 8 9 10 11 13 15 16 20 20 18 21 30 43
82 83 75 67 60 56 53 51 47 44 42 41 41 41 41 40 40 41 43 45 40 36 44 55 60 71 72 60 45 32 10 9 11 13 15 17 20 21 19 18 18 23 35
85 70 59 54 52 52 52 45 38 36 36 36 36 36 37 37 37 37 40 41 44 41 42 64 71 77 91 63 71 56 22 24 23 24 20 20 22 32 24 40 37 22 21
59 60 59 58 54 51 53 43 30 23 21 19 20 23 28 34 36 34 35 35 40 44 42 55 70 72 91 88 82 89 64 53 57 56 50 37 28 23 29 46 64 37 26
62 58 63 62 58 54 49 45 27 22 18 15 15 15 16 19 23 30 36 36 37 41 43 42 64 74 88 89 78 94 87 73 57 74 79 66 51 38 32 31 26 79 46
61 65 64 65 62 61 55 45 34 23 19 17 17 19 19 17 15 17 22 32 34 36 39 44 47 68 86 93 82 92 92 91 80 78 78 82 75 69 60 49 39 28 68
67 72 70 69 69 66 61 58 44 27 24 20 19 20 22 21 21 21 17 18 26 34 36 35 44 52 68 83 89 99 99 93 88 81 79 77 69 71 65 56 58 53 35
77 78 77 72 70 70 69 65 59 48 34 26 25 23 22 21 21 21 20 20 20 22 32 37 38 36 53 69 72 87 99 100 95 95 94 79 69 67 57 49 43 38 44
77 80 81 80 79 79 79 76 70 59 44 36 30 26 23 22 22 21 22 21 20 20 20 27 35 38 40 49 63 60 74 85 92 96 94 98 93 91 77 64 59 50 44
91 88 89 86 87 88 80 80 79 71 59 46 36 29 27 31 28 23 22 21 20 21 19 17 20 30 38 38 43 56 58 63 64 67 80 73 89 100 94 82 67 64 50
85 84 85 90 87 87 88 78 77 77 68 54 46 38 30 27 28 27 25 22 19 18 17 17 16 14 16 28 34 34 43 48 57 62 58 64 71 65 68 80 72 68 62
89 87 81 74 73 80 81 72 74 75 71 58 53 47 35 28 27 24 22 20 18 14 13 14 13 14 12 12 13 21 29 29 38 38 46 49 54 50 48 48 47 48 47
88 86 80 61 52 55 65 76 78 73 62 54 46 37 28 23 22 22 20 17 13 11 9 8 8 9 9 10 11 10 10 14 20 23 24 24 29 39 39 40 36 35 35
85 82 76 54 40 44 53 60 67 65 60 56 47 36 31 23 18 16 14 12 9 7 7 7 7 7 7 7 7 8 10 11 11 12 13 14 17 21 26 29 28 29 30
81 73 65 52 36 36 44 53 55 51 43 38 31 27 23 20 16 13 11 9 7 7 7 7 7 8 8 8 7 6 6 6 8 9 9 10 12 14 15 15 18 21 25
79 60 54 45 33 32 36 38 38 33 27 23 21 20 17 13 11 9 8 8 8 8 8 8 9 9 8 8 9 8 7 6 6 6 6 6 7 7 7 6 6 6 8
67 50 41 38 33 30 30 28 26 24 22 20 18 16 13 10 9 8 8 9 10 10 10 10 10 10 9 9 8 8 7 8 8 7 6 6 5 5 5 6 6 6 6
63 39 37 34 31 27 25 24 23 21 19 18 14 12 10 10 10 11 11 11 11 11 11 12 11 10 11 11 11 10 10 9 8 7 6 6 6 5 5 5 5 5 4
49 35 37 37 32 26 23 22 20 18 16 13 10 10 10 11 11 12 12 14 15 15 15 15 14 13 12 11 11 10 10 9 8 7 7 6 6 5 5 5 5 5 5
40 34 34 32 27 22 20 19 18 15 13 11 11 12 12 12 12 13 13 13 12 12 11 10 9 8 8 8 7 7 6 6 6 6 6 5 5 5 5 5 4 4 4
37 33 32 28 25 20 18 16 14 12 12 13 14 13 13 12 12 12 11 11 10 9 9 9 8 7 7 6 6 5 4 4 3 3 3 3 2 2 2 2 2 2 2

GFSGL_250_rhum_162.txt.gz
RH
19 18 19 20 20 23 25 26 25 23 22 21 22 24 26 27 32 38 44 57 54 43 35 32 26 23 22 22 21 20 17 18 18 16 12 11 11 12 18 34 42 89 100
25 28 30 32 36 43 45 50 49 48 42 41 48 51 50 60 66 64 67 79 65 49 41 35 29 26 23 24 23 21 22 19 19 21 17 12 11 12 16 26 43 67 97
34 43 59 70 75 74 71 80 89 88 95 100 100 100 100 100 100 100 100 86 66 53 45 36 33 31 30 30 31 27 26 23 24 23 21 16 12 13 16 21 32 45 75
66 81 89 91 89 85 80 77 78 80 83 89 86 91 98 98 96 98 91 77 69 64 50 39 37 35 33 41 40 42 40 33 35 25 18 17 14 12 15 18 23 37 50
87 90 93 92 88 86 83 75 70 68 63 59 60 62 65 76 78 74 72 64 62 51 56 49 41 35 36 43 50 44 40 48 47 35 22 19 16 10 12 18 19 25 37
98 100 100 95 80 64 58 56 55 53 48 42 38 36 37 38 41 45 43 46 54 50 48 51 49 43 35 36 44 43 43 41 36 23 23 19 15 15 11 12 20 20 28
99 86 71 59 58 58 55 56 57 58 51 42 37 35 33 33 34 35 35 37 39 44 45 46 46 46 41 36 34 41 48 49 38 24 15 17 17 16 16 12 13 20 20
68 61 57 62 62 60 60 56 54 52 51 42 32 23 20 20 21 25 28 32 34 37 40 41 41 44 43 40 36 44 44 49 41 33 16 12 12 14 17 17 15 14 18
61 62 69 68 68 71 68 62 58 55 50 45 34 24 19 16 14 14 15 17 24 31 33 36 37 40 40 40 40 49 58 60 56 40 28 22 11 13 19 21 19 16 15
68 74 76 79 79 79 76 72 64 60 59 52 41 28 21 17 15 15 16 15 15 18 26 31 35 36 37 35 37 42 61 63 58 65 52 30 16 16 17 25 22 22 20
76 80 83 83 78 75 74 72 69 65 61 62 56 43 31 23 19 18 19 20 19 18 16 19 26 34 36 36 34 37 46 65 63 62 69 68 47 29 34 32 35 30 26
85 92 88 83 81 74 69 68 67 66 63 64 66 61 51 37 27 21 21 20 20 20 20 20 18 20 33 38 41 37 35 46 60 58 60 74 76 69 53 52 51 46 38
95 90 86 84 79 74 70 57 54 60 64 63 61 64 63 50 41 31 27 24 23 22 20 20 20 20 18 28 42 41 38 38 50 56 46 56 70 83 70 58 63 60 43
92 89 94 88 80 78 74 64 51 45 50 62 62 59 57 53 43 35 33 28 25 24 23 23 22 20 20 18 20 35 38 39 40 45 54 61 54 65 79 74 55 53 59
90 92 91 79 75 74 73 66 57 42 40 44 51 56 59 59 51 41 35 30 26 25 23 21 20 21 21 19 17 16 21 34 35 36 44 48 56 53 52 65 71 61 50
90 85 82 80 78 75 69 62 55 46 36 42 51 55 58 57 54 46 36 29 24 22 21 19 18 17 15 14 15 14 12 14 21 28 30 32 37 42 53 51 43 52 55
89 77 74 79 85 78 66 52 44 45 34 33 39 45 49 48 44 36 28 24 20 17 16 14 13 12 12 11 10 10 10 12 11 12 16 23 26 27 32 34 48 43 33
82 73 69 79 85 76 69 47 37 34 34 31 31 34 34 29 24 21 19 18 15 14 13 12 11 10 9 8 8 8 8 8 9 10 10 11 14 19 22 23 25 27 35
73 76 78 81 81 79 74 48 36 38 37 32 29 28 26 23 21 20 18 15 12 11 10 9 8 7 7 7 6 6 6 6 7 6 7 8 10 10 10 12 16 19 21
80 78 77 80 79 76 74 54 37 36 37 33 27 25 22 21 19 17 14 12 11 10 8 7 7 7 7 7 7 7 7 7 7 7 7 6 6 6 7 8 8 8 8
82 79 78 78 77 78 70 51 34 32 31 27 23 20 18 17 16 14 12 10 9 9 9 9 9 9 9 8 8 8 8 8 8 8 8 8 7 6 6 5 5 6 7
80 77 78 75 72 75 65 47 33 29 26 22 20 18 16 15 12 10 10 10 11 11 10 10 10 10 10 10 10 9 9 8 7 7 7 7 7 8 8 7 6 6 5
75 72 74 72 71 71 58 40 30 27 24 21 18 16 14 12 11 11 12 11 11 10 10 10 10 10 10 11 10 10 10 10 10 9 8 8 7 7 7 7 7 6 6
75 74 72 68 72 66 46 32 27 24 22 19 16 13 12 12 14 14 12 12 11 10 10 9 9 8 8 8 8 7 7 6 6 6 5 5 5 6 6 6 6 7 6
71 73 69 71 69 52 34 27 23 21 18 15 13 12 13 14 13 12 11 10 9 9 9 9 9 8 8 7 6 6 5 5 5 5 5 5 4 4 4 4 4 5 5
71 70 70 66 49 30 25 22 20 18 14 12 12 13 13 12 11 11 10 10 10 9 8 6 5 4 4 4 4 3 3 3 3 3 2 2 2 2 2 2 2 2 2

GFSGL_250_rhum_165.txt.gz
RH
33 27 25 26 27 31 33 38 47 50 55 46 42 37 35 29 26 24 24 25 26 31 36 40 42 42 38 35 32 28 26 26 25 24 22 20 22 20 16 14 14 16 18
28 28 34 36 46 50 57 59 74 87 85 83 82 75 64 66 62 56 54 55 63 70 72 73 70 53 45 39 32 29 28 27 28 27 23 20 20 22 19 15 14 14 17
34 40 45 65 64 73 85 94 88 75 67 65 70 70 79 80 81 95 90 81 85 83 80 84 79 63 52 47 38 33 28 26 27 26 26 25 23 20 21 22 17 15 15
45 64 78 79 76 79 74 70 66 60 58 56 52 49 45 47 61 64 66 79 79 78 82 77 80 71 58 55 48 38 31 29 28 28 29 28 27 26 20 18 21 19 17
80 78 84 88 76 76 66 58 55 54 52 51 50 47 44 43 41 40 44 49 49 52 57 61 77 74 60 48 50 43 38 32 30 31 38 40 36 32 29 19 18 18 17
94 96 85 80 73 64 59 57 58 57 56 55 53 51 45 38 36 36 39 40 39 39 39 48 53 57 74 63 46 45 42 37 34 40 41 50 53 50 44 26 17 16 17
89 81 73 70 63 61 63 67 67 64 63 60 58 58 54 44 35 29 25 25 30 36 36 35 36 40 42 49 52 41 40 40 37 33 41 47 43 45 46 46 19 18 17
78 67 63 65 74 74 72 68 65 62 60 57 54 52 51 48 38 30 23 19 18 18 21 26 33 36 38 39 42 46 40 35 36 35 33 36 31 36 37 43 27 20 16
75 68 70 81 79 84 77 74 70 64 59 55 55 54 52 48 47 37 27 20 17 15 15 16 18 21 31 37 38 38 42 39 33 31 33 29 28 28 34 32 24 20 19
72 71 80 83 88 83 78 77 74 68 62 54 45 45 53 54 48 49 39 28 22 18 16 17 19 18 17 23 34 39 38 38 37 32 30 30 29 28 25 30 31 21 19
76 85 94 91 82 83 84 75 68 63 62 60 55 43 37 44 52 50 50 43 30 24 21 19 18 20 20 17 19 26 34 38 40 38 36 32 30 26 26 26 33 29 18
89 99 99 85 80 79 80 78 74 69 66 63 52 46 37 32 38 43 44 49 46 35 27 24 21 20 20 21 21 18 20 27 34 38 37 36 34 32 29 30 29 40 26
98 100 97 88 78 76 75 74 72 72 66 60 46 40 42 34 34 42 44 48 52 49 39 34 28 25 21 20 20 20 20 18 20 27 35 37 37 36 32 30 37 34 35
100 100 95 91 88 78 73 72 74 74 71 65 51 36 34 36 31 33 43 48 50 48 44 40 36 32 25 22 21 20 20 18 18 17 18 25 30 34 34 32 28 35 39
100 95 91 88 84 79 77 75 74 74 71 74 65 46 35 34 32 29 31 35 40 39 37 35 32 28 24 21 19 18 18 18 17 15 14 14 17 21 26 28 27 24 30
92 96 93 93 84 81 73 73 76 75 73 73 69 58 38 34 34 32 30 28 27 26 26 23 20 18 17 17 15 15 14 14 14 13 12 12 12 12 11 17 22 22 21
92 100 94 85 79 78 74 74 71 71 71 69 72 61 46 34 33 32 29 25 23 21 19 18 16 14 13 12 12 11 10 10 10 10 10 10 10 10 11 10 9 15 20
95 100 89 83 77 70 72 71 70 68 69 68 71 64 46 33 30 27 24 21 18 17 16 14 13 12 11 10 9 8 8 7 7 7 7 7 8 8 8 8 9 9 9
100 100 88 82 77 72 75 74 68 67 67 65 67 59 41 31 26 23 20 18 16 15 13 12 11 10 9 8 8 7 6 6 6 6 6 6 6 6 6 6 7 7 8
100 90 82 80 70 72 77 73 68 68 67 67 63 48 32 26 23 21 19 17 15 12 10 9 9 8 9 9 8 8 8 8 8 7 6 6 6 6 5 5 5 5 5
98 89 84 73 74 80 78 71 69 71 69 67 57 33 24 22 20 18 16 13 12 11 11 11 11 11 10 10 9 8 8 8 8 8 7 7 7 7 6 6 6 5 5
94 87 75 73 83 84 76 71 72 69 66 59 34 23 20 18 16 14 12 11 11 12 13 13 12 12 11 11 10 10 9 9 9 8 8 8 8 8 7 6 6 6 5
86 75 77 82 80 74 71 72 67 64 56 31 21 19 17 15 13 12 12 13 13 13 13 12 12 11 10 10 10 9 9 8 8 7 7 7 6 6 6 6 7 7 7
75 87 90 79 75 74 72 67 65 58 32 21 19 17 15 13 13 14 14 14 14 14 15 15 14 12 11 10 9 8 7 6 6 5 5 5 5 5 5 5 5 5 4
93 94 81 79 76 73 68 66 60 34 22 19 18 15 13 14 16 15 14 15 16 16 14 9 7 6 6 5 5 4 4 4 3 3 3 3 3 3 3 3 3 3 4
93 87 82 78 75 69 66 60 36 23 19 18 16 14 15 16 14 15 15 13 9 7 6 6 5 5 5 4 4 4 3 3 3 3 3 2 2 2 2 2 2 2 2

GFSGL_250_rhum_168.txt.gz
RH
72 54 29 34 33 30 28 28 42 70 70 65 62 60 64 66 66 67 56 42 31 22 20 21 25 30 36 43 48 52 51 50 41 33 29 25 23 24 23 19 18 18 19
23 36 29 27 31 34 48 74 88 88 79 68 61 58 55 52 51 54 61 68 56 50 41 36 37 37 40 50 57 63 60 57 52 41 30 29 30 27 26 25 20 19 19
28 25 31 37 49 84 94 85 78 71 60 53 50 48 44 42 40 37 38 41 52 59 69 63 65 68 76 77 77 78 67 64 60 50 38 29 28 30 27 27 26 22 21
32 36 55 80 93 89 81 76 65 55 52 51 51 51 49 45 42 40 38 38 39 40 49 70 72 64 69 73 77 78 65 57 50 42 36 31 27 25 24 21 22 23 22
54 83 90 96 86 78 73 63 56 53 54 54 56 55 52 50 47 44 40 39 40 39 38 38 48 64 63 63 73 78 78 67 52 47 41 35 33 30 27 23 23 24 23
98 96 99 88 76 69 66 62 61 62 63 63 60 55 52 53 56 55 51 43 36 34 33 37 40 40 43 44 49 50 56 67 66 50 45 39 34 32 32 31 26 26 27
100 95 83 73 67 72 70 74 72 74 71 64 57 52 52 50 43 45 49 49 44 36 30 27 26 32 38 38 36 40 47 49 53 54 50 47 41 35 36 35 36 44 34
86 79 74 68 71 76 79 75 74 75 72 67 63 59 53 49 43 37 35 43 46 45 38 26 20 19 21 24 32 39 40 41 47 47 46 50 46 41 35 36 44 44 53
83 80 71 72 83 85 80 77 78 74 71 68 63 63 57 48 39 34 32 31 40 44 44 39 26 21 17 16 17 19 28 35 39 44 43 40 42 45 39 36 33 38 48
89 85 75 83 98 89 80 74 73 67 63 60 59 60 60 56 45 33 31 30 29 35 42 43 40 29 22 18 16 16 17 18 22 31 35 36 33 38 41 37 34 33 31
86 91 82 90 99 93 83 81 76 65 65 61 61 63 61 61 58 49 32 31 32 30 36 38 41 42 35 23 20 18 19 19 17 17 23 31 32 31 30 32 32 31 30
86 84 93 100 100 92 87 82 72 69 69 66 66 65 62 62 62 64 52 33 31 30 29 34 42 44 44 38 27 20 19 18 19 20 17 17 26 31 31 28 28 30 29
90 93 98 100 98 96 84 76 73 76 74 70 68 63 59 60 62 66 69 53 35 31 31 28 28 33 39 42 38 30 24 19 17 17 17 18 17 16 22 28 27 26 26
96 95 100 100 99 93 78 78 78 75 69 66 62 62 57 58 61 64 67 65 47 33 31 30 28 25 25 29 31 33 30 25 20 15 14 15 14 15 15 14 16 20 22
100 100 100 100 96 90 88 87 84 79 66 64 63 60 57 56 60 65 63 59 49 34 29 28 26 24 22 20 20 19 20 21 20 18 16 15 14 13 13 12 12 12 12
100 100 95 100 96 88 84 88 83 75 64 63 69 63 58 60 62 60 59 52 37 27 23 21 19 18 17 17 16 15 14 14 14 14 13 14 13 12 11 11 12 11 11
100 98 90 93 96 86 78 91 89 77 68 69 73 66 63 62 59 56 55 42 26 21 18 16 15 14 14 13 12 12 11 11 10 10 10 10 9 10 10 10 9 9 10
100 94 90 92 95 82 86 97 91 78 70 79 75 66 66 64 56 54 43 26 19 16 15 14 13 12 10 9 9 9 8 8 8 8 7 7 7 7 7 7 6 6 6
98 92 92 92 89 85 92 96 84 77 82 82 69 68 66 60 56 47 29 19 16 14 12 11 10 9 9 8 8 8 9 9 8 8 7 7 7 6 6 5 5 5 5
83 85 88 88 90 96 98 90 83 88 83 76 72 69 63 58 53 34 20 16 14 13 11 10 10 10 10 10 10 10 10 10 9 9 8 8 8 7 7 6 6 5 5
82 89 90 94 97 99 97 89 91 88 86 78 71 67 61 58 40 23 18 16 14 12 11 12 12 12 11 10 10 9 9 9 8 8 8 7 7 7 6 6 6 6 5
88 88 94 100 100 100 98 95 93 91 80 75 71 64 63 48 26 19 16 14 12 12 13 13 12 12 12 12 11 11 10 9 8 8 7 7 6 6 6 6 6 5 6
82 91 100 100 100 98 95 90 87 83 79 74 68 65 52 27 18 16 14 12 13 14 13 13 13 13 11 8 7 6 6 5 4 4 4 4 5 5 5 5 5 5 5
93 100 100 100 98 97 94 97 91 82 75 68 65 51 26 18 17 14 13 14 14 14 15 15 12 8 6 6 5 5 4 4 4 3 3 3 3 3 3 3 2 2 3
100 100 99 99 100 100 99 91 82 76 69 65 51 26 19 17 14 13 15 16 16 16 13 9 7 7 6 6 5 4 4 4 3 3 3 3 3 2 2 2 2 2 2
93 96 100 100 100 99 92 86 79 71 65 50 25 19 17 15 14 16 16 17 15 11 8 7 7 6 6 5 5 4 4 3 3 3 3 3 2 2 2 2 2 2 2